{"data":{"norad_id":67774,"epoch":"2026-05-25T04:00:03.998880Z","epoch_age_seconds":60545,"freshness":"FRESH","line1":"1 67774U 26030L   26145.16671295  .00046408  00000+0  16048-2 0  9999","line2":"2 67774  51.8828 209.3658 0002919 304.7084 236.7654 15.29442010  5438","mean_motion":15.2944201,"eccentricity":0.0002919,"inclination_deg":51.8828,"raan_deg":209.3658,"arg_perigee_deg":304.7084,"mean_anomaly_deg":236.7654,"bstar":0.0016048,"rev_number":543,"period_min":94.151984225933,"perigee_km":475.47807121169,"apogee_km":479.48037996419,"semimajor_km":6855.6162255879,"source":"CELESTRAK","updated_at":"2026-05-25T13:38:07.257330Z"}}